STARLINK-1753

Last updated on Fri Nov 06 2020 00:02:03 GMT+0000 (Coordinated Universal Time)

1 46571U 20070AR 20310.58343750 -.00031330 00000-0 -33725-3 0 9998 2 46571 53.0025 294.1367 0001069 56.8491 85.1717 15.62782451 1776
UTC large
Height (km)
Speed (km/s)
/
Latitude / Longitude
Inclination (degrees)
Orbital Period (minutes)
Azimuth
Elevation
Range (km)
Doppler Factor

Next 0 passes for location: London (51.5072 / 0.1276)

Sorry there are no passes over London.